Showing default

HAISHAO 1, 62190

Orbit data source: Space-Track

HAISHAO 1, 62190 is a Chinese payload satellite in LEO that was launched on Wed, 04 Dec 2024 UTC via a KUAIZHOU-1A launch vehicle from the Xichang Space Center, China (XSC). Payload-class satellites include a variety of spacecraft equipped with specific instruments for various scientific and technological missions. These include communications satellites like Starlink; space stations such as the ISS; scientific satellites like the Hubble; Earth observation satellites from companies like Planet Labs, Umbra, and HawkEye 360; GPS; miniature CubeSats for education and research; and military/defense satellites.

Loading next visibility...
Identifier
62190, 2024-228A
Orbit
LEO
Country
Flag of CNCN / PRC
Related business
Manufacturer
ZHWK/IMICAS
Mission
Operational Commercial Radar Imaging
Bus & Motor
ZK1, Unknown motor
Mass
400 kg wet, 400 kg dry
Launch date (UTC)
2024-12-04 (9 months ago)
Launch vehicle
KUAIZHOU-1A
Launch site
Xichang Space Center, China (XSC)
Object type
Payload
Rocket body
Debris
Shape & HBR
Box + 3 Pan, 3.0 m
Radar Cross Section
3.533 m², Large (>1 m²)

Expand to show TLE details & history
Last TLE update: 1 week ago

TLE from 1 week ago
0 HAISHAO 1
1 62190U 24228A   25253.00347581  .00012758  00000-0  12898-3 0  9995
2 62190  42.9915 240.7649 0001134 296.2538  63.8211 15.65232755 43678
Epoch: 2025-09-10T00:05Z
TLE epoch observation values (Epoch: 2025-09-10T00:05:00.309Z)
Latitude
-0.00003°
Longitude
-109.77255°
Altitude
372.003 km
Speed
7.688 km/s
True Right ascension
16h 03m 03s
True Declination
0° 00' 00"
Sunlit
Object was in daylight at epoch
Visualization orbit readout
Latitude
Unknown
Longitude
Unknown
Altitude
Unknown
Speed
Unknown
Apparent Right ascension
Unknown
Apparent Declination
Unknown
Sunlit
N/A
Visualization observer readout
Local Sidereal Time
17:29:06
Azimuth
Unknown
Elevation
Unknown
Doppler factor
Unknown
Orbital elements
Apogee altitude
375.314 km
Perigee altitude
373.782 km
Semi-major axis
6,752.685 km
Eccentricity
0.00011
Inclination
42.9915°
RAAN
240.7649°
Arg. of periapsis
296.2538°
True anomaly
63.83276°
Mean anomaly
63.8211°
Eccentric anomaly
63.82693°
Mean motion
3.91137 °/min
Orbital period
92.04 mins
BSTAR
0.00012898
Loading maneuver chart data...
Computing Atmospheric mass density...
Loading historical data...
Loading historical data...
Loading historical data...
Loading historical data...
Loading historical data...
Loading historical data...
Loading historical data...
Other satellites on launch #228 in the year 2024 (2024-12-04 UTC)

Documentation

Showing up to 5 results
|